Weather History for Aurora, NE

Change the Weather History Date:

Wednesday, February 1, 2012

  Actual Average Record
Temperature  
Mean Temperature 43 °F -  
Max Temperature 61 °F 36 °F 69 °F (1989)
Min Temperature 25 °F 14 °F -11 °F (1979)
Degree Days  
Heating Degree Days 22    
Moisture  
Dew Point 18 °F    
Average Humidity 43    
Maximum Humidity 68    
Minimum Humidity 18    
Precipitation  
Precipitation 0.00 in - - ()
Sea Level Pressure  
Sea Level Pressure 30.09 in    
Wind  
Wind Speed 7 mph (West)    
Max Wind Speed 20 mph    
Max Gust Speed 25 mph    
Visibility 10 miles    
Events      
Averages and records for this station are not official NWS values.
T = Trace of Precipitation, MM = Missing Value Source: NWS Daily Summary

Daily Weather History Graph

Daily Weather History Graph

Search for Another Location

Airport:

Trip Planner

Search our weather history database for the weather conditions in past years. The results will help you decide how hot, cold, wet, or windy it might be!

Date:

Astronomy

Feb. 01, 2012 Rise Set
Actual Time 7:42 AM CST 5:48 PM CST
Civil Twilight 7:13 AM CST 6:17 PM CST
Nautical Twilight 6:40 AM CST 6:50 PM CST
Astronomical Twilight 6:08 AM CST 7:22 PM CST
Moon 12:17 PM CST (2/1) 2:30 AM CST (2/1)
Length of Visible Light 11h 04m
Length of Day
10h 05m
Waxing Gibbous, 65% of the Moon is Illuminated
Feb 1
Waxing Gibbous
Feb 7
Full
Feb 14
Last Quarter
Feb 21
New
Feb 29
First Quarter

Hourly Weather History & Observations

Time (CST) Temp. Windchill Dew Point Humidity Pressure Visibility Wind Dir Wind Speed Gust Speed Precip Events Conditions
12:15 AM 30.7 °F 24.1 °F 18.0 °F 59% 30.08 in 10.0 mi West 6.9 mph - N/A   Clear
12:35 AM 29.7 °F 22.8 °F 17.6 °F 61% 30.09 in 10.0 mi West 6.9 mph - N/A   Clear
12:55 AM 30.0 °F 23.2 °F 18.1 °F 61% 30.09 in 10.0 mi West 6.9 mph - N/A   Clear
1:15 AM 30.0 °F 23.2 °F 17.4 °F 59% 30.09 in 10.0 mi West 6.9 mph - N/A   Clear
1:35 AM 31.1 °F 25.4 °F 17.8 °F 58% 30.09 in 10.0 mi West 5.8 mph - N/A   Clear
1:55 AM 30.9 °F 24.3 °F 17.8 °F 58% 30.09 in 10.0 mi West 6.9 mph - N/A   Clear
2:15 AM 30.0 °F 24.1 °F 17.6 °F 60% 30.09 in 10.0 mi West 5.8 mph - N/A   Clear
2:35 AM 30.6 °F 24.7 °F 18.0 °F 60% 30.09 in 10.0 mi West 5.8 mph - N/A   Clear
2:55 AM 29.3 °F 23.2 °F 17.6 °F 62% 30.08 in 10.0 mi West 5.8 mph - N/A   Clear
3:15 AM 28.9 °F 23.9 °F 17.6 °F 63% 30.08 in 10.0 mi West 4.6 mph - N/A   Clear
3:35 AM 29.1 °F 24.1 °F 17.6 °F 62% 30.09 in 10.0 mi West 4.6 mph - N/A   Clear
3:55 AM 27.5 °F 21.1 °F 17.4 °F 66% 30.09 in 10.0 mi West 5.8 mph - N/A   Clear
4:15 AM 27.5 °F 22.2 °F 17.4 °F 66% 30.09 in 10.0 mi West 4.6 mph - N/A   Clear
4:35 AM 28.0 °F 22.8 °F 17.6 °F 65% 30.09 in 10.0 mi West 4.6 mph - N/A   Clear
4:55 AM 29.3 °F 24.3 °F 17.6 °F 62% 30.09 in 10.0 mi West 4.6 mph - N/A   Clear
5:15 AM 29.5 °F 24.5 °F 18.1 °F 63% 30.09 in 10.0 mi WNW 4.6 mph - N/A   Clear
5:35 AM 29.3 °F 24.3 °F 18.1 °F 63% 30.09 in 10.0 mi WNW 4.6 mph - N/A   Clear
5:55 AM 29.8 °F 23.9 °F 18.1 °F 62% 30.08 in 10.0 mi WNW 5.8 mph - N/A   Clear
6:15 AM 28.4 °F 21.2 °F 17.4 °F 63% 30.08 in 10.0 mi NW 6.9 mph - N/A   Clear
6:35 AM 25.9 °F 18.2 °F 16.7 °F 68% 30.09 in 10.0 mi WNW 6.9 mph - N/A   Clear
6:55 AM 27.1 °F 21.8 °F 17.1 °F 66% 30.09 in 10.0 mi WNW 4.6 mph - N/A   Clear
7:15 AM 27.0 °F 19.5 °F 17.1 °F 66% 30.10 in 10.0 mi West 6.9 mph - N/A   Clear
7:35 AM 27.5 °F 21.1 °F 17.4 °F 66% 30.10 in 10.0 mi West 5.8 mph - N/A   Clear
7:55 AM 28.0 °F 20.8 °F 17.6 °F 65% 30.11 in 10.0 mi West 6.9 mph - N/A   Clear
8:15 AM 28.0 °F 20.8 °F 18.5 °F 67% 30.11 in 10.0 mi West 6.9 mph - N/A   Clear
8:35 AM 29.3 °F 23.2 °F 18.5 °F 64% 30.12 in 10.0 mi West 5.8 mph - N/A   Clear
9:15 AM 35.6 °F 30.7 °F 21.6 °F 57% 30.12 in 10.0 mi West 5.8 mph - N/A   Clear
9:35 AM 40.1 °F 36.9 °F 21.9 °F 48% 30.12 in 10.0 mi WNW 4.6 mph - N/A   Clear
9:55 AM 42.8 °F 41.1 °F 23.0 °F 46% 30.12 in 10.0 mi WSW 3.5 mph - N/A   Clear
10:15 AM 44.8 °F 41.6 °F 22.1 °F 41% 30.13 in 10.0 mi West 5.8 mph - N/A   Scattered Clouds
10:35 AM 46.0 °F 44.8 °F 21.7 °F 38% 30.13 in 10.0 mi West 3.5 mph - N/A   Scattered Clouds
10:55 AM 47.7 °F - 21.0 °F 35% 30.13 in 10.0 mi WSW 6.9 mph - N/A   Mostly Cloudy
11:15 AM 50.0 °F - 21.6 °F 33% 30.12 in 10.0 mi SW 6.9 mph - N/A   Scattered Clouds
11:35 AM 51.3 °F - 22.3 °F 32% 30.12 in 10.0 mi SW 6.9 mph - N/A   Mostly Cloudy
11:55 AM 52.7 °F - 22.1 °F 30% 30.11 in 10.0 mi SW 10.4 mph - N/A   Overcast
12:15 PM 53.8 °F - 21.4 °F 28% 30.10 in 10.0 mi SW 8.1 mph - N/A   Overcast
12:35 PM 56.8 °F - 21.0 °F 25% 30.09 in 10.0 mi SW 11.5 mph - N/A   Overcast
12:55 PM 58.6 °F - 19.9 °F 22% 30.08 in 10.0 mi WSW 12.7 mph - N/A   Mostly Cloudy
1:15 PM 60.4 °F - 18.5 °F 20% 30.08 in 10.0 mi West 17.3 mph - N/A   Scattered Clouds
1:35 PM 59.9 °F - 17.2 °F 19% 30.07 in 10.0 mi WSW 18.4 mph 25.3 mph N/A   Mostly Cloudy
1:55 PM 61.2 °F - 17.8 °F 19% 30.07 in 10.0 mi WSW 19.6 mph 24.2 mph N/A   Scattered Clouds
2:15 PM 61.0 °F - 17.8 °F 19% 30.06 in 10.0 mi WSW 19.6 mph - N/A   Clear
2:35 PM 60.8 °F - 18.7 °F 20% 30.06 in 10.0 mi WSW 16.1 mph 23.0 mph N/A   Scattered Clouds
3:15 PM 60.8 °F - 17.2 °F 18% 30.06 in 10.0 mi West 10.4 mph - N/A   Clear
3:35 PM 60.8 °F - 16.7 °F 18% 30.06 in 10.0 mi West 9.2 mph - N/A   Clear
3:55 PM 60.8 °F - 16.7 °F 18% 30.06 in 10.0 mi WSW 11.5 mph - N/A   Clear
4:15 PM 60.1 °F - 17.8 °F 19% 30.06 in 10.0 mi WSW 11.5 mph - N/A   Clear
4:35 PM 59.5 °F - 18.5 °F 20% 30.05 in 10.0 mi West 9.2 mph - N/A   Clear
4:55 PM 58.1 °F - 18.5 °F 21% 30.06 in 10.0 mi West 8.1 mph - N/A   Clear
5:15 PM 55.6 °F - 18.0 °F 23% 30.06 in 10.0 mi West 9.2 mph - N/A   Clear
5:35 PM 51.3 °F - 16.7 °F 25% 30.07 in 10.0 mi West 9.2 mph - N/A   Clear
5:55 PM 46.6 °F - 15.4 °F 29% 30.08 in 10.0 mi WNW 5.8 mph - N/A   Clear
6:15 PM 44.1 °F 42.5 °F 14.0 °F 30% 30.08 in 10.0 mi West 3.5 mph - N/A   Clear
6:35 PM 44.4 °F 42.9 °F 15.4 °F 31% 30.09 in 10.0 mi WNW 3.5 mph - N/A   Clear
6:55 PM 40.6 °F 37.5 °F 14.2 °F 34% 30.10 in 7.0 mi WSW 4.6 mph - N/A   Clear
7:15 PM 42.1 °F 40.2 °F 15.1 °F 34% 30.10 in 10.0 mi West 3.5 mph - N/A   Clear
7:35 PM 39.9 °F 36.7 °F 14.5 °F 36% 30.11 in 10.0 mi West 4.6 mph - N/A   Clear
7:55 PM 45.3 °F 43.0 °F 16.0 °F 31% 30.11 in 10.0 mi NNW 4.6 mph - N/A   Clear
8:15 PM 43.2 °F 41.5 °F 15.8 °F 33% 30.12 in 10.0 mi NNW 3.5 mph - N/A   Clear
8:35 PM 32.7 °F 29.6 °F 10.2 °F 39% 30.12 in 10.0 mi NW 3.5 mph - N/A   Clear
8:55 PM 32.9 °F 29.8 °F 13.5 °F 45% 30.12 in 10.0 mi NW 3.5 mph - N/A   Clear
9:15 PM 31.3 °F 27.9 °F 13.5 °F 48% 30.13 in 10.0 mi WNW 3.5 mph - N/A   Clear
9:35 PM 31.8 °F - 13.3 °F 46% 30.13 in 10.0 mi Calm Calm - N/A   Clear
9:55 PM 32.7 °F 28.3 °F 15.8 °F 50% 30.13 in 10.0 mi North 4.6 mph - N/A   Clear
10:15 PM 35.1 °F 31.0 °F 16.5 °F 47% 30.13 in 10.0 mi NNE 4.6 mph - N/A   Clear
10:35 PM 31.5 °F 26.8 °F 14.4 °F 49% 30.13 in 10.0 mi NNE 4.6 mph - N/A   Clear
10:55 PM 27.5 °F 23.6 °F 13.3 °F 55% 30.13 in 10.0 mi North 3.5 mph - N/A   Clear
11:15 PM 30.7 °F - 14.9 °F 52% 30.14 in 10.0 mi Calm Calm - N/A   Clear
11:35 PM 30.4 °F - 14.5 °F 52% 30.15 in 10.0 mi Calm Calm - N/A   Clear
11:55 PM 30.2 °F - 14.7 °F 53% 30.15 in 10.0 mi Calm Calm - N/A   Clear